Air Quality Table

TIMESTAMP NO2 O3 PM2.5 TEMP HUM AIRPRES WS WD NO
2021-08-02 17:00 9.65 ug/m3 95.56 ug/m3 20.15 ug/m3 36.68 C 26.88 % 999.93 mbar 1.55 m/s 255.73 Deg 1.44 ug/m3
2021-08-02 09:00 16.83 ug/m3 70.41 ug/m3 15.99 ug/m3 29.61 C 52.45 % 999.37 mbar 0.74 m/s 245.41 Deg 1.07 ug/m3
2021-08-02 01:00 7.99 ug/m3 71.99 ug/m3 12.82 ug/m3 31.76 C 39.93 % 999.21 mbar 0.8 m/s 316.9 Deg 0.12 ug/m3
2021-08-01 17:00 5.27 ug/m3 99.6 ug/m3 16.25 ug/m3 37.11 C 22.67 % 998.66 mbar 1.92 m/s 210.34 Deg 0.6 ug/m3
2021-08-01 09:00 8.2 ug/m3 71.04 ug/m3 16.53 ug/m3 30.1 C 42.44 % 998.35 mbar 0.81 m/s 274.92 Deg 0.24 ug/m3
2021-08-01 01:00 14.97 ug/m3 71.6 ug/m3 15.95 ug/m3 30.44 C 56.6 % 998.53 mbar 0.93 m/s 165.44 Deg 0.27 ug/m3
2021-07-31 17:00 9.46 ug/m3 98.76 ug/m3 17.44 ug/m3 35.71 C 38.49 % 997.97 mbar 1.47 m/s 197.94 Deg 1.12 ug/m3
2021-07-31 09:00 9.85 ug/m3 85.11 ug/m3 15.35 ug/m3 29.25 C 55.52 % 998.40 mbar 1.24 m/s 308.79 Deg 0.8 ug/m3
2021-07-31 01:00 6.53 ug/m3 75.7 ug/m3 13.49 ug/m3 30.26 C 36.91 % 999.41 mbar 1.03 m/s 264.11 Deg 0.11 ug/m3
2021-07-30 17:00 4.97 ug/m3 81.42 ug/m3 15.97 ug/m3 35.06 C 22.41 % 1,000.69 mbar 1.9 m/s 302.09 Deg 0.83 ug/m3
2021-07-30 09:00 12.74 ug/m3 79.22 ug/m3 12.75 ug/m3 29.34 C 30.34 % 1,001.09 mbar 0.65 m/s 243.19 Deg 0.9 ug/m3
2021-07-30 01:00 7.21 ug/m3 92.96 ug/m3 10.26 ug/m3 30.21 C 26.71 % 1,001.43 mbar 0.78 m/s 283.92 Deg 0.11 ug/m3
2021-07-29 17:00 5.76 ug/m3 105.07 ug/m3 11.88 ug/m3 33.91 C 28.37 % 1,001.83 mbar 1.89 m/s 277.98 Deg 0.88 ug/m3
2021-07-29 09:00 16.09 ug/m3 84.75 ug/m3 12.79 ug/m3 29.36 C 28.72 % 1,001.59 mbar 0.95 m/s 278.56 Deg 0.65 ug/m3
2021-07-29 01:00 10.53 ug/m3 89.61 ug/m3 11.57 ug/m3 28.66 C 45.41 % 1,002.28 mbar 1.01 m/s 222.87 Deg 0.17 ug/m3
2021-07-28 17:00 6.81 ug/m3 113.25 ug/m3 10.92 ug/m3 33.11 C 26.03 % 1,002.65 mbar 2.29 m/s 72.92 Deg 0.75 ug/m3
2021-07-28 09:00 14.12 ug/m3 92.06 ug/m3 9.91 ug/m3 27.3 C 36.96 % 1,002.96 mbar 1.2 m/s 225.04 Deg 0.77 ug/m3
2021-07-28 01:00 14.45 ug/m3 82.95 ug/m3 10.78 ug/m3 28.09 C 46.59 % 1,003.86 mbar 0.7 m/s 231.46 Deg 0.15 ug/m3
2021-07-27 17:00 6.01 ug/m3 109.46 ug/m3 10.98 ug/m3 30.97 C 48.47 % 1,004.72 mbar 1.74 m/s 154.17 Deg 0.72 ug/m3
2021-07-27 09:00 13.9 ug/m3 64.74 ug/m3 12.71 ug/m3 25.66 C 85.24 % 1,004.57 mbar 0.79 m/s 215.42 Deg 1.9 ug/m3

It is to be noted that the data is provisional and subject to quality assurance procedures. For validated data kindly refer your request to contact.air@era.org.mt